Simultaneous Nadir Overpasses (SNOs) Predictions

Prediction of SNOs between NOAA-15 and METOP-C Satellite Orbit:

Table of predicted SNOs for the next 14.0 days since TLE Epoch: 2/22/2019
Index Date (NOAA-15) Time (NOAA-15) Lat,Lon (NOAA-15) SZA (NOAA-15 ) Date (METOP-C) Time (METOP-C) Lat,Lon (METOP-C) SZA (METOP-C ) Distance(km) Time Diff (sec)
1 02/23/2019 19:25:40 -80.75, 101.28 88.42 02/23/2019 19:24:32 -80.76, 101.16 88.44 2.92 68
2 02/23/2019 20:16:15 80.75, -91.45 91.57 02/23/2019 20:15:12 80.77, -91.48 91.56 1.67 63
3 02/23/2019 21:06:44 -80.77, 75.61 88.46 02/23/2019 21:05:54 -80.76, 75.70 88.48 2.18 50
4 02/23/2019 21:57:18 80.75,-116.77 91.54 02/23/2019 21:56:34 80.76,-116.94 91.52 3.08 44
5 02/23/2019 22:47:46 -80.75, 50.63 88.48 02/23/2019 22:47:15 -80.77, 50.58 88.48 1.94 31
6 02/23/2019 23:38:21 80.76,-142.10 91.52 02/23/2019 23:37:55 80.77,-142.06 91.52 1.55 26
7 02/24/2019 00:28:50 -80.78, 24.95 88.51 02/24/2019 00:28:37 -80.76, 25.11 88.52 3.35 13
8 02/24/2019 01:19:24 80.76,-167.42 91.49 02/24/2019 01:19:17 80.76,-167.52 91.48 1.84 7
9 02/24/2019 02:09:52 -80.76, -0.03 88.53 02/24/2019 02:09:58 -80.77, -0.00 88.51 1.55 6
10 02/24/2019 03:00:27 80.77, 167.25 91.46 02/24/2019 03:00:38 80.78, 167.36 91.48 2.26 11
11 02/24/2019 03:50:55 -80.77, -25.35 88.56 02/24/2019 03:51:20 -80.77, -25.47 88.56 2.09 25
12 02/24/2019 04:41:30 80.77, 141.93 91.43 02/24/2019 04:42:00 80.77, 141.89 91.44 0.60 30
13 02/24/2019 05:31:58 -80.77, -50.68 88.58 02/24/2019 05:32:41 -80.78, -50.59 88.55 2.11 43
14 02/24/2019 06:22:33 80.77, 116.60 91.41 02/24/2019 06:23:21 80.78, 116.78 91.44 3.31 48
15 02/24/2019 07:13:01 -80.77, -76.01 88.61 02/24/2019 07:14:03 -80.77, -76.05 88.59 0.78 62




NCC Satellite Simultaneous Nadir Overpasses (SNOs) Prediction Service
